Вернуться в каталог

CZ-6A DEB

АктивенSSO
NORAD 55898·DEBRIS·🇨🇳 China

Запущен Nov 11, 2022 с Taiyuan Satellite Launch Center

Loading…

Ближайшие Пролёты (ближайшие 24 часа)

TLE

СвежийSource: Space-Track

Эпоха: Sep 13, 2026, 22:13 UTC

1 55898U 22151AAW 26256.92629801  .00000776  00000-0  42219-3 0  9995
2 55898  98.8289 257.1737 0058094 103.4263 257.3394 14.14261411191445

Отслеживайте CZ-6A DEB в реальном времени с AllMySat

Download on the App Store